Location: Hall+in+Tirol
(47.2830°N, 11.5170°E)
Time: 12:01:10
(UTC+01:00)

Daily predictions for brighter satellites

Satellite Brightness Start Highest point End
(mag) Time Altitude Azimuth Time Altitude Azimuth Time Altitude Azimuth
Cosmos 724 4.4 18:01:21 10° SSW 18:07:07 65° ESE 18:12:51 10° NE
Cosmos 1980 3.9 18:02:08 10° NNW 18:07:41 50° ENE 18:13:12 10° SE
BREEZE-M R/B 2.5 18:09:14 10° WNW 18:11:11 64° NNE 18:14:38 10° E
MOS 1 4.3 18:07:16 10° SSE 18:12:51 67° ENE 18:18:30 10° N
USA 215 4.2 18:08:10 10° ENE 18:13:43 29° SE 18:19:15 10° S
Cosmos 2285 Rocket 4.4 18:13:05 10° S 18:18:58 43° ESE 18:24:57 10° NNE
NOSS 3-2 (C) 4.3 18:15:41 10° S 18:20:44 30° ESE 18:26:14 10° NE
Lacrosse 5 1.9 18:17:15 10° NW 18:22:22 85° NE 18:27:26 10° SE
Shenzhou-11 Module 4.0 18:25:25 10° WSW 18:27:52 23° SSW 18:30:20 10° SE
Lacrosse 4 Rocket 3.9 18:24:44 10° NW 18:28:17 27° WSW 18:31:52 10° SSW
Cosmos 1869 Rocket 3.7 18:24:39 10° SSW 18:28:58 77° W 18:33:19 10° N
ERS-2 2.7 18:25:46 10° SE 18:29:09 35° ENE 18:32:33 10° N
Envisat 4.0 18:28:12 10° ESE 18:32:18 25° ENE 18:36:24 10° N
EO 1 Del DPAF 3.6 18:29:18 10° NNE 18:32:59 43° E 18:36:38 10° S
Cosmos 1371 Rocket 4.1 18:29:13 10° NNW 18:34:30 83° WSW 18:39:47 10° SSE
Cosmos 2221 Rocket 4.1 18:31:14 10° NNW 18:35:37 63° W 18:39:58 10° S
Cosmos 1725 Rocket 4.3 18:29:21 10° NNW 18:35:41 74° W 18:41:55 10° S
Tiangong 2 2.3 18:34:31 10° WSW 18:37:28 35° S 18:40:05 12° ESE
CZ-4C R/B 4.1 18:33:11 10° NW 18:38:04 22° NNE 18:43:16 11° ENE
Cosmos 2084 Rocket 4.1 18:37:02 10° S 18:41:04 36° ESE 18:44:20 13° ENE
USA 186 3.8 18:42:11 13° NE 18:42:11 13° NE 18:43:11 10° NE
Cosmos 2219 Rocket 3.0 18:36:47 10° NW 18:42:21 56° WSW 18:47:50 10° S
ALOS 2.9 18:37:52 10° S 18:42:28 60° W 18:47:07 10° NNW
CZ-4 R/B 4.0 18:42:35 10° SSW 18:46:01 26° W 18:49:24 10° NW
FREGAT/IRIS 2.8 18:44:14 10° SSE 18:47:05 46° ENE 18:49:57 10° N
Cosmos 1378 Rocket 4.3 18:44:13 10° N 18:48:07 30° ENE 18:52:00 10° SE
SeaSat 1 2.6 18:44:06 10° SE 18:48:55 56° NE 18:53:45 10° NNW
USA 267 3.6 18:43:43 13° E 18:49:20 52° NNE 18:55:38 10° NW
Cosmos 1633 3.7 18:46:48 10° SE 18:49:33 21° E 18:51:36 14° NE
Cosmos 44 3.7 18:45:22 10° NNW 18:50:07 46° NE 18:54:18 14° ESE
Cosmos 2219 3.4 18:44:55 10° SSW 18:50:31 73° WNW 18:56:12 10° NNE
Cosmos 2123 Rocket 4.5 18:45:20 10° SSW 18:51:27 65° W 18:57:36 10° N
Cosmos 1862 4.2 18:48:15 10° SSW 18:52:09 53° WNW 18:56:04 10° N
Landsat 4 3.7 18:49:14 10° NNE 18:53:00 87° W 18:56:45 10° SSW
Cosmos 2237 Rocket 2.2 18:47:27 10° NNW 18:53:07 86° WSW 18:58:45 10° SSE
SJ-6B 3.1 18:50:38 10° SE 18:54:09 39° ENE 18:57:44 10° N
SL-16 R/B 2.5 18:48:57 10° NNW 18:54:26 46° NE 18:59:44 11° SE
COSMO-SKYMED 1 3.4 18:50:59 10° N 18:55:14 54° WNW 18:59:28 10° SSW
Cosmos 2227 Rocket 2.3 18:49:50 10° S 18:55:19 54° ESE 19:00:49 10° NE
CENTAUR R/B 3.5 18:53:20 10° SSE 18:58:01 24° ESE 19:00:41 18° ENE
Iridium 40 4.5 18:55:23 10° N 18:58:19 77° E 19:01:32 10° S
Meteor 1-18 Rocket 4.5 18:53:31 10° N 18:58:56 46° ENE 19:04:15 10° SE
SPOT 3 Rocket 4.0 18:54:56 10° S 19:00:05 66° WSW 19:05:18 10° NNW
Okean 1 4.2 18:59:35 10° NNE 19:03:05 28° ENE 19:03:54 25° E
Cosmos 2056 Rocket 4.2 18:58:40 10° NNW 19:03:59 61° WSW 19:09:19 10° S
Cosmos 2297 Rocket 2.2 19:04:18 10° S 19:09:50 60° ESE 19:15:25 10° NNE
Cosmos 1452 Rocket 3.4 19:05:17 10° NNW 19:10:34 68° ENE 19:15:48 10° SSE
HJ-1C 3.3 19:08:47 10° SSE 19:12:11 73° ENE 19:15:37 10° N
NOSS 3-2 (A) 3.4 19:13:54 10° SW 19:19:54 90° ESE 19:26:39 10° NE
Meteor 1-25 Rocket 4.2 19:16:55 10° S 19:22:20 59° E 19:27:48 10° NNE
Spot 2 Rocket 4.0 19:21:10 30° E 19:22:34 36° ENE 19:27:11 10° N
Cosmos 2333 Rocket 4.1 19:17:55 10° NW 19:22:52 32° WSW 19:27:47 10° SSW
ATLAS 3B R/B 3.2 19:15:50 10° SW 19:22:58 62° NW 19:29:50 10° NE
Geosat 4.4 19:21:29 27° ENE 19:23:27 38° ESE 19:28:07 10° S
Cosmos 1674 Rocket 3.8 19:21:02 10° NNW 19:25:24 71° W 19:29:43 10° S
H-2A R/B 4.2 19:22:55 10° SSW 19:26:36 39° W 19:30:19 10° NNW
Tsikada Rocket 4.4 19:23:23 10° SSE 19:29:14 40° E 19:35:08 10° NNE
Cosmos 1908 Rocket 3.5 19:29:31 10° S 19:33:57 67° E 19:38:25 10° NNE
Cosmos 1420 Rocket 3.9 19:29:09 10° NNW 19:34:27 85° ENE 19:38:45 16° SSE
USA 238 DEB 4.4 19:27:58 10° WSW 19:34:42 54° NW 19:41:34 10° NE
USA 238 4.4 19:28:02 10° WSW 19:34:48 54° NW 19:41:41 10° NE
Cosmos 2082 3.6 19:29:33 10° SSW 19:35:10 84° ESE 19:40:51 10° NNE
Meteor 2-4 Rocket 4.4 19:31:00 10° N 19:36:18 33° ENE 19:36:20 33° ENE
CZ-2D R/B 3.3 19:32:35 10° S 19:36:29 82° WSW 19:40:24 10° NNW
Resurs 1-3 3.6 19:36:14 48° ESE 19:36:57 54° ENE 19:41:15 10° N
DNEPR-1 R/B 3.5 19:35:34 10° SW 19:39:45 81° NW 19:41:38 33° NNE
Resurs 01 Rocket 1.6 19:39:44 51° ESE 19:40:28 59° ENE 19:44:50 10° N
Iridium 4 Rocket 3.3 19:35:41 10° N 19:40:53 85° W 19:45:34 10° S
Cosmos 1733 Rocket 4.3 19:39:52 10° SSW 19:43:59 42° WNW 19:48:06 10° N
Cosmos 1812 4.0 19:40:58 10° NNW 19:44:37 41° W 19:48:16 10° SSW
Cosmos 158 Rocket 3.7 19:40:03 10° S 19:44:53 65° ESE 19:46:48 36° NE
ATLAS CENTAUR R/B 3.5 19:43:34 10° N 19:45:00 14° NNE 19:45:00 14° NNE
Cosmos 44 Rocket 3.3 19:41:12 10° NW 19:46:14 90° ENE 19:47:58 42° SE
Cosmos 1939 Rocket 3.1 19:46:52 55° NE 19:46:52 55° NE 19:50:27 10° N
Cosmos 405 4.3 19:43:27 10° SW 19:46:46 40° WNW 19:50:07 10° N
Cosmos 1464 Rocket 4.1 19:42:00 10° NNW 19:48:08 74° W 19:54:13 10° S
Thor Agena Rocket 3.4 19:46:22 10° NNE 19:51:31 89° WNW 19:56:35 10° SSW
SJ-11-01 4.3 19:52:53 57° ENE 19:52:53 57° ENE 19:57:22 10° N
Cosmos 921 Rocket 2.9 19:48:35 10° NNW 19:53:09 74° ENE 19:53:18 73° E
YAOGAN 6 4.2 19:57:59 26° N 19:57:59 26° N 19:59:40 10° N
USA 215 3.2 19:53:51 31° NE 19:57:17 88° SE 20:03:50 10° SW
Cosmos 1975 Rocket 3.0 19:53:40 10° N 19:57:47 73° NNE 19:57:47 73° NNE
Cosmos 468 4.4 19:57:45 10° SSW 20:03:02 85° ESE 20:05:23 34° NNE
Lacrosse 5 4.1 20:01:02 10° WNW 20:04:48 21° SW 20:08:33 10° S
USA 32 4.1 19:59:38 10° S 20:04:52 77° W 20:10:08 10° N
Envisat 3.8 20:06:08 10° S 20:11:02 50° W 20:16:00 10° NNW
NOSS 3-2 (C) 3.9 20:05:07 10° SW 20:11:08 63° NW 20:15:35 22° NNE
USA 186 4.1 20:13:44 21° NW 20:13:44 21° NW 20:15:07 10° NNW
Tiangong 2 3.9 20:11:26 10° WSW 20:12:21 15° SW 20:12:21 15° SW
Meteor 1-13 Rocket 4.0 20:10:50 10° N 20:16:17 77° ENE 20:16:17 77° ENE
Sich 1 Rocket 4.1 20:13:12 10° SSW 20:17:40 58° WNW 20:22:06 10° N
NOAA 11 4.3 20:20:21 61° NNE 20:20:21 61° NNE 20:24:58 10° N
H-2A R/B 3.9 20:22:48 20° NNE 20:22:48 20° NNE 20:24:42 10° N
Cosmos 1110 Rocket 4.4 20:16:46 10° NNW 20:20:53 52° N 20:20:53 52° N
Cosmos 1943 4.0 20:18:16 10° NNW 20:22:16 38° NNE 20:22:16 38° NNE
CZ-4C R/B 3.2 20:21:48 10° NW 20:28:22 46° NE 20:28:28 46° NE
USA 267 3.3 20:31:05 59° SSE 20:32:14 70° SW 20:38:47 10° NW
Cosmos 1634 Rocket 4.0 20:31:38 10° N 20:36:57 67° N 20:36:57 67° N
SL-16 R/B 3.7 20:33:24 10° NW 20:38:22 32° WSW 20:41:42 18° SSW
Cosmos 2227 Rocket 3.9 20:34:45 10° WSW 20:39:40 30° NW 20:44:38 10° NNE
CENTAUR R/B 2.6 20:41:38 10° SW 20:47:49 77° NW 20:47:59 77° NNW
Cosmos 2297 Rocket 4.0 20:49:30 10° WSW 20:54:17 27° NW 20:59:08 10° N
Cosmos 1603 4.4 20:51:02 10° NNW 20:55:26 51° WNW 20:55:26 51° WNW
ATLAS 3B R/B 4.5 21:09:22 10° WNW 21:15:02 25° NNW 21:17:45 20° NNE
Resurs 01 Rocket 4.3 21:17:18 16° W 21:17:20 16° W 21:20:04 10° NW
USA 215 4.2 21:41:12 42° NW 21:41:12 42° NW 21:46:09 10° W
CZ-4C R/B 4.3 22:10:17 10° NW 22:13:40 31° WNW 22:13:40 31° WNW
